EW5024 Weather Reports


Display with metric or nautical units.
time (UTC)temp
F
wind
direction
speed
MPH
gust
MPH
rain 1hr
in
rain 24hr
in
rain mn
in
humidity
%
barometer
mb
20260902201512 74 261 0.0 0.0 0.00 0.00 0.00 70 1018.2
20260902200004 74 261 0.0 0.0 0.00 0.00 0.00 70 1018.1
20260902194510 74 261 0.0 0.0 0.00 0.00 0.00 70 1018.1
20260902193011 74 261 0.0 3.0 0.00 0.00 0.00 70 1017.9
20260902191504 76 292 0.0 2.0 0.00 0.00 0.00 67 1017.7
20260902190002 77 279 0.0 2.0 0.00 0.00 0.00 64 1017.5
20260902184502 77 277 0.0 4.0 0.00 0.00 0.00 62 1017.1
20260902183002 78 277 0.0 4.0 0.00 0.00 0.00 61 1016.8
20260902181611 79 32 3.0 8.0 0.00 0.00 0.00 60 1016.5
20260902180104 82 236 6.0 11.0 0.00 0.00 0.00 53 1016.4
20260902174559 83 211 5.0 19.0 0.00 0.00 0.00 49 1016.2
20260902173112 81 216 6.0 13.0 0.00 0.00 0.00 52 1016.1
20260902171602 81 281 3.0 9.0 0.00 0.00 0.00 51 1015.8
20260902170056 81 264 0.0 8.0 0.00 0.00 0.00 52 1015.7
20260902164602 80 241 1.0 5.0 0.00 0.00 0.00 54 1015.8
20260902163101 82 236 2.0 5.0 0.00 0.00 0.00 54 1015.7
20260902161554 82 197 1.0 4.0 0.00 0.00 0.00 49 1015.7
20260902160104 83 211 2.0 5.0 0.00 0.00 0.00 52 1015.6
20260902154552 85 284 4.0 12.0 0.00 0.00 0.00 46 1015.5
20260902153055 85 220 3.0 12.0 0.00 0.00 0.00 45 1015.5
20260902151551 86 219 6.0 14.0 0.00 0.00 0.00 42 1015.6
20260902150049 86 223 5.0 11.0 0.00 0.00 0.00 44 1015.8
20260902144547 87 232 7.0 15.0 0.00 0.00 0.00 42 1015.9
20260902143047 87 165 6.0 16.0 0.00 0.00 0.00 42 1015.9
20260902141544 87 200 7.0 18.0 0.00 0.00 0.00 41 1016.0
20260902140043 87 167 6.0 18.0 0.00 0.00 0.00 42 1016.1
20260902134550 88 172 4.0 9.0 0.00 0.00 0.00 43 1016.2
20260902133037 86 257 1.0 4.0 0.00 0.00 0.00 47 1016.6
20260902131542 85 250 3.0 7.0 0.00 0.00 0.00 47 1016.7
20260902130035 86 276 2.0 6.0 0.00 0.00 0.00 46 1016.8
20260902124529 85 270 3.0 6.0 0.00 0.00 0.00 48 1017.1
20260902123032 84 231 4.0 6.0 0.00 0.00 0.00 48 1017.4
20260902121523 84 243 2.0 5.0 0.00 0.00 0.00 49 1017.5
20260902120021 84 238 2.0 6.0 0.00 0.00 0.00 48 1017.7
20260902114518 83 226 3.0 5.0 0.00 0.00 0.00 48 1018.1
20260902113014 82 49 2.0 6.0 0.00 0.00 0.00 51 1018.4
20260902111511 81 5 1.0 5.0 0.00 0.00 0.00 52 1018.6
20260902110014 80 304 2.0 4.0 0.00 0.00 0.00 53 1018.9
20260902104509 80 315 2.0 4.0 0.00 0.00 0.00 54 1019.1
20260902103008 79 355 2.0 6.0 0.00 0.00 0.00 53 1019.4
20260902101505 79 280 1.0 4.0 0.00 0.00 0.00 55 1019.6
20260902100002 78 355 1.0 5.0 0.00 0.00 0.00 56 1019.9
20260902094600 78 5 3.0 6.0 0.00 0.00 0.00 57 1019.9
20260902093104 77 31 3.0 8.0 0.00 0.00 0.00 58 1019.9
20260902091559 76 355 3.0 9.0 0.00 0.00 0.00 59 1020.0
20260902084552 75 325 5.0 12.0 0.00 0.00 0.00 60 1020.3
20260902083050 74 344 6.0 11.0 0.00 0.00 0.00 61 1020.5
20260902081546 74 5 5.0 7.0 0.00 0.00 0.00 62 1020.5
20260902080044 73 16 1.0 10.0 0.00 0.00 0.00 64 1020.5
20260902074553 72 327 5.0 10.0 0.00 0.00 0.00 64 1020.6
20260902073042 72 341 5.0 10.0 0.00 0.00 0.00 65 1020.6
20260902071541 72 11 4.0 10.0 0.00 0.00 0.00 67 1020.8
20260902070040 71 5 3.0 6.0 0.00 0.00 0.00 68 1020.7
20260902064543 70 5 4.0 8.0 0.00 0.00 0.00 69 1020.8
20260902063039 69 62 1.0 5.0 0.00 0.00 0.00 72 1020.8
20260902061554 68 290 0.0 0.0 0.00 0.00 0.00 74 1020.6
20260902060044 67 288 0.0 0.0 0.00 0.00 0.00 78 1020.6
20260902054533 66 288 0.0 0.0 0.00 0.00 0.00 79 1020.5
20260902053033 65 290 0.0 0.0 0.00 0.00 0.00 79 1020.4
20260902051530 66 288 0.0 0.0 0.00 0.00 0.00 78 1020.2
20260902050029 66 287 0.0 0.0 0.00 0.00 0.00 79 1020.1
20260902044535 66 287 0.0 0.0 0.00 0.00 0.00 80 1020.1
20260902043028 66 287 0.0 0.0 0.00 0.00 0.00 79 1020.0
20260902041528 66 287 0.0 0.0 0.00 0.00 0.00 79 1019.9
20260902040026 66 287 0.0 0.0 0.00 0.00 0.00 79 1020.0
20260902034526 66 287 0.0 0.0 0.00 0.00 0.00 80 1019.9
20260902033024 66 287 0.0 1.0 0.00 0.00 0.00 79 1019.9
20260902031522 67 288 0.0 3.0 0.00 0.00 0.00 79 1019.9
20260902030021 67 288 0.0 0.0 0.00 0.00 0.00 79 1019.9
20260902024525 67 288 0.0 0.0 0.00 0.00 0.00 79 1019.8
20260902023020 67 289 0.0 1.0 0.00 0.00 0.00 79 1019.8
20260902021517 67 286 0.0 0.0 0.00 0.00 0.00 79 1019.6
20260902020016 68 322 1.0 4.0 0.00 0.00 0.00 78 1019.5
20260902014514 68 310 0.0 3.0 0.00 0.00 0.00 77 1019.5
20260902013012 69 316 0.0 0.0 0.00 0.00 0.00 77 1019.4
20260902011516 69 313 0.0 3.0 0.00 0.00 0.00 77 1019.3
20260902010015 69 312 0.0 0.0 0.00 0.00 0.00 76 1019.4
20260902004508 69 311 0.0 3.0 0.00 0.00 0.00 76 1019.5
20260902003008 70 324 1.0 4.0 0.00 0.00 0.00 75 1019.5
20260902001507 70 306 0.0 2.0 0.00 0.00 0.00 75 1019.6
20260902000011 70 306 0.0 0.0 0.00 0.00 0.00 75 1019.5
20260901234506 70 306 0.0 0.0 0.00 0.00 0.00 76 1019.4
20260901233005 70 340 0.0 1.0 0.00 0.00 0.00 75 1019.4
20260901231502 70 340 1.0 5.0 0.00 0.00 0.00 75 1019.4
20260901230059 71 342 0.0 3.0 0.00 0.00 0.00 75 1019.2
20260901224556 71 342 0.0 3.0 0.00 0.00 0.00 73 1019.0
20260901223054 72 54 0.0 0.0 0.00 0.00 0.00 72 1018.8
20260901221559 73 54 0.0 0.0 0.00 0.00 0.00 70 1018.6
20260901220053 73 59 0.0 0.0 0.00 0.00 0.00 69 1018.5
20260901214645 74 360 0.0 3.0 0.00 0.00 0.00 69 1018.6
20260901213045 76 232 0.0 2.0 0.00 0.00 0.00 63 1018.5
20260901211545 76 225 0.0 0.0 0.00 0.00 0.00 63 1018.4
20260901210044 77 225 1.0 3.0 0.00 0.00 0.00 62 1018.3
20260901204544 78 191 0.0 0.0 0.00 0.00 0.00 59 1018.3
20260901203051 78 191 0.0 3.0 0.00 0.00 0.00 58 1018.3